Location: Betra
(48.4113°N, 8.6634°E)
Time: 01:21:55
(UTC+00:00)

Resurs 1-4 Rocket - Pass Details

Date: 09 August 2024
Orbit: 798 x 813 km, 98.7° (Epoch: 07 September)

Event Time Altitude Azimuth Distance (km) Brightness Sun altitude
Rises 01:18:32 0° 17° (NNE) 3,346 6.7 -21.5°
Reaches altitude 10° 01:20:55 10° 20° (NNE) 2,409 5.7 -21.3°
Maximum altitude 01:26:13 65° 102° (ESE) 892 2.3 -20.9°
Enters shadow 01:28:25 35° 172° (S) 1,289 2.7 -20.7°
